[TLELIST] Archives

 

[TLELIST] Current TLEs

April 30th 2023 PDT

HST 1 20580U 90037B 23119.66540420 .00004655 00000-0 24729-3 0 9994 2 20580 28.4687 230.7725 0002340 203.1084 306.6001 15.12895651614375 ISS (ZARYA) 1 25544U 98067A 23120.30550722 -.00137492 00000-0 -24643-2 0 9991 2 25544 51.6388 205.8267 0005442 283.2281 183.1709 15.49744270394361 CXO 1 25867U 99040B 23120.36200414 .00000947 00000-0 00000-0 0 9998 2 25867 38.0806 202.9706 9046409 257.4040 359.8505 0.37817006 12993 ...Continue Reading

[TLELIST] Current TLEs

April 29th 2023 PDT

HST 1 20580U 90037B 23118.60218363 .00004850 00000-0 25819-3 0 9993 2 20580 28.4689 237.8428 0002413 191.0539 276.4080 15.12885959613949 ISS (ZARYA) 1 25544U 98067A 23119.33915411 .00020493 00000-0 36053-3 0 9991 2 25544 51.6391 210.6131 0005433 254.9361 214.7667 15.50427801394211 CXO 1 25867U 99040B 23120.36200414 .00000947 00000-0 00000-0 0 9998 2 25867 38.0806 202.9706 9046409 257.4040 359.8505 0.37817006 12993 ...Continue Reading

[TLELIST] Current TLEs

April 28th 2023 PDT

HST 1 20580U 90037B 23117.75158163 .00005041 00000-0 26879-3 0 9999 2 20580 28.4689 243.4993 0002458 181.6480 323.9042 15.12877972614086 ISS (ZARYA) 1 25544U 98067A 23118.43383685 .00021920 00000-0 38548-3 0 9990 2 25544 51.6392 215.1006 0005110 252.9812 200.3836 15.50394765394079 CXO 1 25867U 99040B 23120.36200414 .00000947 00000-0 00000-0 0 9998 2 25867 38.0806 202.9706 9046409 257.4040 359.8505 0.37817006 12993 ...Continue Reading

[TLELIST] Current TLEs

April 28th 2023 PDT

HST 1 20580U 90037B 23117.75158163 .00005041 00000-0 26879-3 0 9999 2 20580 28.4689 243.4993 0002458 181.6480 323.9042 15.12877972614086 ISS (ZARYA) 1 25544U 98067A 23118.43383685 .00021920 00000-0 38548-3 0 9990 2 25544 51.6392 215.1006 0005110 252.9812 200.3836 15.50394765394079 CXO 1 25867U 99040B 23120.36200414 .00000947 00000-0 00000-0 0 9998 2 25867 38.0806 202.9706 9046409 257.4040 359.8505 0.37817006 12993 ...Continue Reading

[TLELIST] Current TLEs

April 27th 2023 PDT

HST 1 20580U 90037B 23116.67334358 .00004643 00000-0 24681-3 0 9997 2 20580 28.4689 250.6689 0002505 170.2472 211.1767 15.12867537613656 ISS (ZARYA) 1 25544U 98067A 23117.29580829 .00021162 00000-0 37309-3 0 9994 2 25544 51.6386 220.7438 0005539 246.6442 330.8231 15.50344675393899 CXO 1 25867U 99040B 23117.71740322 .00000898 00000-0 00000-0 0 9995 2 25867 38.1165 203.3285 9046510 257.1111 359.8445 0.37811087 12994 ...Continue Reading

[TLELIST] Current TLEs

April 26th 2023 PDT

HST 1 20580U 90037B 23116.10556507 .00005323 00000-0 28452-3 0 9993 2 20580 28.4689 254.4443 0002546 164.0585 358.9163 15.12862765613835 ISS (ZARYA) 1 25544U 98067A 23115.53220313 .00027629 00000-0 48547-3 0 9998 2 25544 51.6404 229.4846 0005628 240.7961 207.2997 15.50274552393622 CXO 1 25867U 99040B 23117.71740322 .00000898 00000-0 00000-0 0 9995 2 25867 38.1165 203.3285 9046510 257.1111 359.8445 0.37811087 12994 ...Continue Reading

[TLELIST] Current TLEs

April 25th 2023 PDT

HST 1 20580U 90037B 23114.43244670 .00015518 00000-0 84821-3 0 9991 2 20580 28.4691 265.5700 0002673 147.6393 244.9736 15.12861579613317 ISS (ZARYA) 1 25544U 98067A 23115.14034597 .00035216 00000-0 61617-3 0 9996 2 25544 51.6366 231.4311 0005968 234.1810 185.5471 15.50265567393560 CXO 1 25867U 99040B 23115.07302386 .00000813 00000-0 00000-0 0 9993 2 25867 38.1522 203.6633 9045689 256.8318 359.8784 0.37809894 12980 ...Continue Reading

[TLELIST] Current TLEs

April 25th 2023 PDT

HST 1 20580U 90037B 23114.43244670 .00015518 00000-0 84821-3 0 9991 2 20580 28.4691 265.5700 0002673 147.6393 244.9736 15.12861579613317 ISS (ZARYA) 1 25544U 98067A 23115.14034597 .00035216 00000-0 61617-3 0 9996 2 25544 51.6366 231.4311 0005968 234.1810 185.5471 15.50265567393560 CXO 1 25867U 99040B 23115.07302386 .00000813 00000-0 00000-0 0 9993 2 25867 38.1522 203.6633 9045689 256.8318 359.8784 0.37809894 12980 ...Continue Reading

[TLELIST] Current TLEs

April 24th 2023 PDT

HST 1 20580U 90037B 23113.85481035 .00006941 00000-0 37441-3 0 9990 2 20580 28.4691 269.4111 0002717 141.9513 338.4528 15.12834171613222 ISS (ZARYA) 1 25544U 98067A 23114.17389280 .00019670 00000-0 34935-3 0 9999 2 25544 51.6414 236.2188 0005920 230.0177 192.5268 15.50183767393415 CXO 1 25867U 99040B 23115.07302386 .00000813 00000-0 00000-0 0 9993 2 25867 38.1522 203.6633 9045689 256.8318 359.8784 0.37809894 12980 ...Continue Reading

[TLELIST] Current TLEs

April 23rd 2023 PDT

HST 1 20580U 90037B 23112.78268281 .00006065 00000-0 32599-3 0 9993 2 20580 28.4692 276.5399 0002783 131.1126 258.6896 15.12820233613061 ISS (ZARYA) 1 25544U 98067A 23112.77041343 .00020477 00000-0 36406-3 0 9990 2 25544 51.6408 243.1723 0006098 225.0285 280.1359 15.50125092393198 CXO 1 25867U 99040B 23115.07302386 .00000813 00000-0 00000-0 0 9993 2 25867 38.1522 203.6633 9045689 256.8318 359.8784 0.37809894 12980 ...Continue Reading
  • This mailing list is a public mailing list - anyone may join or leave, at any time.
  • This mailing list is announce-only.

International Space Station (ISS) / Hubble Space Telescope (HST) / Chandra X-Ray Observatory Orbital Data via EMAIL

Privacy Policy:

Private list